Regional Weather Roundup
Issued by NWS

Home | Current Version | Previous Version | Graphics & Text | Print | Product List | Glossary On
Versions: 1 2 3 4 5 6 7 8 9 10 11 12 13 14 15 16 17 18 19 20 21 22 23 24 25 26 27 28 29 30 31 32 33 34 35 36 37 38 39 40 41 42 43 44 45 46 47 48 49 50
000
ASUS43 KTOP 291759
RWRKS

WEATHER ROUNDUP FOR KANSAS
NATIONAL WEATHER SERVICE GOODLAND KS
100 PM CDT SAT AUG 29 2015

NOTE:  "FAIR" INDICATES FEW OR NO CLOUDS BELOW 12,000 FEET WITH NO
SIGNIFICANT WEATHER AND/OR OBSTRUCTIONS TO VISIBILITY.

KSZ001>006-013>018-027>032-041>047-291900-
NORTHWEST KANSAS

CITY           SKY/WX    TMP DP  RH WIND       PRES   REMARKS
GOODLAND       SUNNY     85  44  23 VRB5      30.19F
6HR MIN TEMP:  56; 6HR MAX TEMP:  85;

HAYS           SUNNY     82  57  42 NE14G20   30.10F
HILL CITY      SUNNY     85  59  41 N6        30.12F
6HR MIN TEMP:  57; 6HR MAX TEMP:  86;

RUSSELL        SUNNY     80  60  50 N14G21    30.08F
6HR MIN TEMP:  59; 6HR MAX TEMP:  80;

$$

KSZ061>065-074>080-084>089-291900-
SOUTHWEST KANSAS

CITY           SKY/WX    TMP DP  RH WIND       PRES   REMARKS
DODGE CITY     SUNNY     80  60  50 N12       30.14F
6HR MIN TEMP:  56; 6HR MAX TEMP:  80;

ELKHART          N/A     85  60  42 NE3         N/A
GARDEN CITY    SUNNY     83  56  39 N10       30.15F
6HR MIN TEMP:  56; 6HR MAX TEMP:  83;

GREAT BEND     SUNNY     81  59  47 N15G21    30.09F
LIBERAL        SUNNY     84  63  48 NE12      30.17F
PRATT          SUNNY     79  57  47 N9        30.10F
$$

KSZ066>073-081>083-090>101-291900-
SOUTHEAST KANSAS

CITY           SKY/WX    TMP DP  RH WIND       PRES   REMARKS
CHANUTE        PTSUNNY   78  64  61 VRB5      30.02F
6HR MIN TEMP:  69; 6HR MAX TEMP:  79;

COFFEYVILLE    MOSUNNY   79  68  69 NE8       30.01S
6HR MIN TEMP:  67; 6HR MAX TEMP:  79;

HUTCHINSON     CLOUDY    75  61  61 N9        30.08F
6HR MIN TEMP:  64; 6HR MAX TEMP:  75;

NEWTON         CLOUDY    68  57  68 NE8       30.10S
PARSONS        MOSUNNY   79  67  66 VRB6      30.02F
6HR MIN TEMP:  65; 6HR MAX TEMP:  81;

WICHITA INTL   CLOUDY    71  61  70 N13       30.07S
6HR MIN TEMP:  66; 6HR MAX TEMP:  74;

WICHITA JABRA  CLOUDY    67  61  81 N10       30.07S
6HR MIN TEMP:  65; 6HR MAX TEMP:  71;

$$

KSZ007>012-019>026-033>040-048>060-102>105-291900-
NORTHEAST KANSAS

CITY           SKY/WX    TMP DP  RH WIND       PRES   REMARKS
CONCORDIA      CLOUDY    66  60  81 NE7       30.10F
6HR MIN TEMP:  60; 6HR MAX TEMP:  66;

EMPORIA        CLOUDY    69  62  78 N7        30.06S
6HR MIN TEMP:  62; 6HR MAX TEMP:  69;

LAWRENCE       CLOUDY    74  66  76 VRB5      30.04S
6HR MIN TEMP:  66; 6HR MAX TEMP:  74;

MANHATTAN      CLOUDY    69  63  81 NE9       30.07S
6HR MIN TEMP:  66; 6HR MAX TEMP:  69;

OLATHE IND     CLOUDY    73  67  81 N5        30.04S
6HR MIN TEMP:  66; 6HR MAX TEMP:  73;

OLATHE EXE     CLOUDY    74  67  78 N8        30.02F
6HR MIN TEMP:  67; 6HR MAX TEMP:  74;

SALINA         CLOUDY    71  62  73 N10       30.09F
6HR MIN TEMP:  65; 6HR MAX TEMP:  71;

TOPEKA BILLARD CLOUDY    70  65  84 N5        30.05S
6HR MIN TEMP:  62; 6HR MAX TEMP:  71;

TOPEKA FORBES  CLOUDY    71  64  78 N9        30.05S
6HR MIN TEMP:  65; 6HR MAX TEMP:  71; 6HR PCP: TRACE;

$$



USA.gov is the U.S. government's official web portal to all federal, state and local government web resources and services.